SCP
-0 -0 -0 -0 -0 -0 -0 -0 -0 -0 -0 -0 -0 -0 -0 0 0 -0 0 -0 0 0 0 0 0 0 0 0 0 0 0 0 -0 0 -0 0 0 -0 -0 -0 0 -0 -0 -0 -0
-0 -0 -0 -0 -0 -0 -0 -0 -0 -0 -0 -0 -0 -0 -0 -0 -0 0 -0 -0 -0 -0 0 0 0 0 0 0 0 0 0 -0 -0 0 0 -0 -0 -0 -0 -0 -0 -0 -0 -0 -0
-0 -0 -0 -0 -0 -0 -0 -0 -0 -0 -0 -0 -0 0 0 0 0 -0 0 -0 -0 0 0 0 0 0 -0 0 -0 0 -0 0 0 0 0 -0 0 -0 -0 -0 -0 -0 -0 -0 -0
-0 -0 -0 -0 -0 -0 0 0 0 0 0 0 0 0 0 0 0 -0 0 -0 -0 0 0 0 0 0 0 -0 -0 0 -0 0 -0 0 0 -0 0 0 -0 -0 -0 -0 -0 -0 -0
-0 -0 -0 -0 -0 -0 0 0 0 0 0 0 0 0 0 0 0 -0 0 0 -0 0 0 0 0 0 0 -0 -0 -0 -0 0 -0 0 0 -0 0 0 0 -0 -0 -0 -0 -0 -0
-0 -0 -0 -0 -0 -0 0 0 0 0 0 0 0 0 0 0 0 0 0 0 0 0 0 0 0 0 0 -0 -0 -0 0 0 0 0 0 0 0 0 -0 -1 -0 -0 -0 -0 -0
-0 -0 -0 -0 -0 -0 -0 -0 0 0 -0 0 0 0 0 0 0 0 0 0 0 -0 0 0 0 0 0 0 0 0 0 0 -0 0 0 0 0 -0 -0 -0 -0 -0 -0 -0 -0
0 0 0 0 0 0 0 0 -0 -0 0 -0 -0 0 -0 0 0 0 -0 0 0 0 0 0 0 0 0 0 0 0 0 0 -0 0 0 0 0 -0 -0 -0 -0 -0 -0 -0 -0
0 0 0 0 0 0 0 0 -0 -0 0 -0 0 0 0 0 0 0 0 0 0 0 0 0 0 0 0 0 0 0 0 0 0 0 0 0 0 0 -0 -0 -1 -0 -0 -0 -0
0 0 0 0 0 0 0 0 -0 0 0 -0 0 0 0 0 0 0 0 0 0 0 0 0 0 0 0 0 0 0 0 0 0 0 0 0 0 -0 -0 -1 -1 -0 -0 -0 -0
0 0 0 0 0 0 0 -0 -0 -0 0 0 0 0 0 0 0 0 0 0 0 0 0 0 0 0 0 0 0 0 0 0 0 -0 0 0 -0 -0 -0 -0 -1 -0 -0 -0 -0
0 0 -0 -0 0 0 0 -0 -0 -0 0 0 0 0 0 0 0 0 0 0 0 0 0 0 0 0 0 0 0 0 0 0 0 -0 0 0 0 -0 -0 -0 -0 -0 -0 -0 -0
0 0 0 0 0 0 0 0 0 0 -0 0 -0 0 0 0 0 0 0 0 0 0 0 0 0 0 0 0 0 0 0 0 0 0 0 0 0 0 0 0 -0 -0 -0 -0 -0
0 0 0 0 0 0 0 0 0 0 0 0 0 0 0 0 0 0 0 0 0 0 0 0 0 0 0 0 0 0 0 0 0 -0 0 0 0 0 0 -0 0 -0 0 -0 -0
0 0 0 0 0 0 0 0 0 0 0 0 0 -0 -0 0 0 0 0 0 0 0 0 0 0 0 0 0 0 0 0 0 0 -0 0 0 0 0 0 0 -0 -0 -0 -0 -0
0 0 0 0 0 0 0 0 0 0 0 0 0 -0 0 0 0 -0 0 0 0 0 0 0 0 0 0 0 0 0 0 0 0 -0 0 -0 0 0 0 -0 -0 -0 -0 -0 -0
0 -0 0 0 0 0 0 0 0 0 0 0 -0 -0 -0 0 -0 -0 -0 0 0 0 0 0 0 0 0 0 -0 0 0 0 0 0 0 -0 -0 0 -0 -0 -0 -0 -0 -0 0
-0 -0 0 0 0 0 0 0 0 0 0 0 -0 -0 -0 -0 -0 -0 -0 0 0 0 0 0 0 0 0 0 0 0 0 0 0 0 0 -0 0 0 0 -0 -0 -0 -0 -0 -0
-0 0 0 0 0 0 0 0 0 0 0 -0 -0 -0 -0 -0 -0 -0 -0 -0 -0 0 0 0 0 0 0 0 0 0 0 0 0 0 0 0 0 0 0 0 0 -0 0 -0 0
0 0 0 0 0 0 0 0 0 0 0 0 -0 -0 -0 -0 -0 -0 -0 0 0 0 0 0 0 0 0 0 0 0 0 0 0 0 0 0 0 -0 0 0 -0 0 -0 -0 0
0 0 0 0 0 0 0 0 0 0 0 0 0 -0 -0 -0 -0 -0 -0 -0 -0 -0 0 0 0 0 -0 0 0 0 0 0 0 0 0 0 -0 0 -0 -0 0 0 0 -0 -0
0 0 0 -0 0 0 0 0 0 0 0 0 0 0 0 0 -0 -0 -0 -0 -0 -0 0 0 0 0 0 0 0 0 0 0 0 0 0 0 -0 0 0 0 0 0 0 0 -0
0 0 0 0 0 0 0 0 0 0 0 0 0 0 0 0 0 -0 -0 -0 -0 -0 0 0 0 0 0 -0 0 0 0 0 0 0 0 0 0 -0 -0 -0 0 0 0 0 -0
0 0 0 0 0 0 0 0 0 0 0 0 0 0 0 0 0 -0 -0 -0 -0 -0 -0 0 0 0 0 0 0 0 0 0 0 0 0 0 -0 -0 0 0 0 0 0 -0 -0
0 0 0 0 0 0 0 0 0 0 0 0 0 0 0 0 0 -0 -0 -0 -0 -0 -0 0 0 0 0 0 0 0 0 0 0 0 0 0 -0 -0 -0 0 0 0 0 0 0
0 0 0 0 0 0 0 0 0 0 0 -0 0 0 0 0 0 0 -0 -0 -0 -0 -0 0 0 0 0 0 0 0 0 0 0 0 0 0 0 -0 0 0 0 0 0 0 0
0 0 0 0 0 0 0 0 0 0 0 -0 -0 -0 0 0 0 0 -0 0 -0 -0 -0 0 0 0 0 0 0 0 0 0 0 0 0 0 0 0 0 0 0 0 0 0 0
Wind_Speed_500mb
44 45 46 46 46 47 48 49 46 43 39 39 33 32 34 33 38 45 62 52 42 30 17 36 37 28 43 35 25 7 2 6 7 18 12 16 15 36 23 46 9 21 46 93 87
46 47 48 49 50 50 50 52 50 46 41 40 38 32 30 33 41 58 45 41 39 39 47 43 51 46 30 31 20 17 8 15 16 14 15 32 22 31 22 27 31 50 72 95 77
46 48 49 51 52 53 53 52 51 47 45 43 41 34 27 30 36 26 4 24 53 55 49 44 33 48 30 25 34 22 16 21 24 14 8 6 17 26 43 14 48 76 96 103 77
50 51 52 53 53 55 54 52 51 50 51 47 40 34 27 17 10 7 8 10 37 63 54 56 47 31 15 19 41 13 37 38 45 22 10 16 17 34 34 22 58 77 109 111 87
53 54 55 56 56 55 51 50 51 53 51 52 44 35 25 15 49 17 17 7 34 69 67 63 60 39 17 28 43 30 37 39 52 32 31 24 17 7 12 47 65 80 92 89 82
57 57 57 59 59 55 49 50 48 54 53 51 43 38 20 14 14 13 46 18 22 67 71 62 44 64 17 33 31 23 52 57 46 27 3 7 12 10 47 76 73 80 83 75 74
59 58 58 59 59 57 48 46 55 72 54 35 34 35 30 60 14 12 29 39 32 42 74 75 40 51 30 7 75 59 37 30 26 41 20 15 7 19 45 57 72 68 72 72 64
64 64 65 65 63 60 49 49 59 49 37 38 27 25 28 22 21 42 35 44 42 34 52 64 69 44 30 28 22 19 16 23 18 34 23 32 14 31 74 76 70 74 71 71 68
71 70 69 67 62 56 45 54 60 29 29 50 13 12 28 12 22 19 44 52 49 35 44 48 51 38 22 7 11 9 19 11 10 41 20 7 22 33 61 75 78 75 78 78 74
74 76 72 67 59 45 44 53 54 31 30 37 10 18 15 10 26 35 17 50 55 43 36 38 32 12 15 10 23 11 9 13 21 28 20 24 29 45 71 67 70 74 78 84 93
75 82 81 68 57 36 41 52 63 21 53 48 59 61 85 65 68 38 12 48 51 46 17 39 22 37 48 32 10 11 14 19 15 19 45 36 40 52 68 56 63 65 74 79 86
79 82 87 77 54 22 29 39 39 43 40 59 28 33 43 44 32 41 17 37 32 34 21 9 41 37 15 20 22 30 20 27 30 29 15 45 44 47 45 55 77 74 75 81 76
79 81 84 81 45 24 27 37 42 49 8 35 16 31 43 30 14 48 26 18 10 15 31 39 13 36 31 31 33 32 31 29 18 15 12 45 24 35 21 30 50 54 81 96 101
79 84 86 71 21 39 34 42 43 58 7 14 16 22 55 28 7 51 32 34 14 30 23 32 43 37 40 42 41 35 37 36 27 16 14 16 17 33 38 40 30 61 71 74 87
77 81 73 44 37 34 44 42 47 10 6 10 18 23 50 32 30 43 51 27 37 22 19 44 43 47 44 55 39 38 21 31 33 11 3 27 9 16 41 41 37 56 79 74 80
76 74 55 25 25 33 46 55 12 10 10 10 18 35 44 50 43 46 51 52 39 36 40 32 39 41 50 35 38 27 22 21 22 8 18 41 14 13 38 61 56 68 82 90 79
77 71 42 18 20 36 44 49 10 7 20 18 16 28 16 35 26 33 32 28 13 19 35 39 47 46 28 38 25 32 14 17 9 15 18 23 10 16 62 65 66 66 89 98 85
83 67 19 7 17 30 40 11 6 18 5 11 19 18 19 39 16 33 28 24 29 33 15 32 38 50 35 30 36 24 31 12 19 10 22 11 15 13 51 87 99 98 106 113 87
87 33 20 27 28 23 16 6 8 12 13 14 15 9 12 27 20 18 19 2 23 40 26 18 40 16 52 43 36 28 33 20 10 2 6 9 11 9 17 28 56 74 71 72 78
80 28 17 39 21 18 6 11 6 17 13 10 10 11 13 20 15 27 11 10 28 34 38 9 19 29 54 33 44 46 17 20 8 22 9 11 11 18 17 21 36 44 76 98 100
63 24 19 37 19 12 4 7 10 31 18 8 7 6 6 10 7 15 12 26 27 36 39 22 9 21 5 30 53 11 35 13 13 12 17 7 18 14 21 23 23 35 84 94 91
39 8 33 54 11 10 6 14 24 23 14 8 5 5 6 9 8 6 14 8 22 22 29 19 10 13 26 25 5 50 14 24 19 19 7 9 26 11 21 24 30 35 83 93 102
35 17 37 27 8 9 14 14 12 20 17 6 3 5 8 7 7 5 8 17 19 11 10 17 6 16 16 9 5 11 27 17 12 13 20 22 20 8 16 17 43 58 69 98 113
18 7 19 16 20 3 10 12 18 28 9 13 8 8 5 6 10 5 12 10 18 20 14 23 9 19 15 12 19 8 22 17 33 18 20 22 23 16 27 29 21 43 64 102 107
7 4 1 8 12 20 17 12 22 15 8 16 9 6 6 9 6 8 14 19 14 8 6 4 15 13 35 51 49 47 24 26 24 24 27 22 16 18 19 22 14 39 64 77 95
8 7 6 18 17 16 10 7 20 15 12 19 10 27 23 13 15 23 25 14 6 6 1 9 10 23 34 33 33 34 15 13 30 21 13 15 16 18 12 25 12 32 58 69 91
15 25 16 11 5 5 5 7 19 34 21 26 27 28 24 23 33 43 49 40 16 12 8 9 7 12 12 17 12 7 15 3 16 20 22 14 18 5 5 16 23 32 51 54 68
Wind_Direction_500mb
7 4 1 358 355 351 348 343 341 339 332 325 318 310 303 285 271 263 254 243 230 217 185 174 172 171 184 202 196 220 67 233 218 188 121 20 194 164 147 139 173 178 160 156 151
6 3 360 357 354 350 346 342 340 338 335 327 317 310 300 293 286 268 279 253 227 212 210 178 179 176 186 208 208 201 198 229 203 207 171 171 183 141 135 138 106 107 140 154 153
5 2 359 356 354 349 346 342 338 336 333 330 323 312 298 294 300 291 226 227 206 208 208 188 172 181 203 219 213 208 233 235 252 229 225 181 142 172 138 153 161 145 152 159 156
2 359 356 355 352 348 344 340 337 332 329 324 322 314 299 280 253 149 95 84 192 193 194 189 185 189 176 211 227 259 239 241 262 251 203 160 132 141 178 169 169 163 159 160 167
1 358 355 354 352 349 347 342 341 332 325 319 315 313 294 250 251 212 186 115 177 185 193 191 195 196 197 204 239 236 249 253 247 237 254 125 61 346 177 151 154 151 155 161 166
360 356 354 352 350 349 350 349 347 341 328 320 304 299 266 247 310 191 224 234 201 192 195 192 201 197 219 233 205 232 238 252 260 216 144 121 65 65 138 146 149 154 164 166 170
359 355 352 351 350 346 348 351 345 337 327 310 297 288 255 249 233 169 204 223 235 217 200 202 188 191 220 257 236 248 264 264 253 153 174 143 68 104 143 144 153 162 167 172 178
357 355 351 352 349 344 350 347 346 344 4 352 303 275 258 282 260 226 208 222 225 229 223 211 199 216 245 268 312 227 241 253 245 180 162 165 177 147 164 157 169 168 175 180 186
356 353 349 349 347 341 348 345 346 342 335 348 324 283 265 270 273 306 232 222 206 210 213 205 200 223 246 220 308 243 241 223 221 183 153 186 125 166 177 174 167 173 178 184 190
357 350 346 344 347 342 343 346 359 7 328 335 316 301 281 354 320 305 281 203 194 191 195 198 202 168 221 161 215 220 195 227 230 194 159 186 150 173 189 184 179 179 185 186 188
355 352 344 343 346 342 347 359 13 346 312 284 270 269 282 293 291 285 329 197 203 181 177 196 193 206 213 210 233 250 216 251 264 203 195 191 170 183 179 189 178 185 191 194 196
350 347 343 341 344 352 359 29 7 328 303 319 324 282 284 310 299 265 303 206 188 209 179 158 218 217 192 210 210 236 242 253 268 269 171 189 183 182 176 190 180 182 190 195 196
347 345 340 338 343 345 359 359 355 353 290 298 353 16 0 322 244 295 292 277 212 214 203 209 233 210 201 224 220 222 227 243 233 286 304 160 166 159 197 208 203 206 199 189 193
346 346 340 333 0 357 357 347 353 340 32 279 1 14 358 344 263 359 315 243 256 222 219 226 236 198 212 220 209 221 225 240 248 247 253 186 168 196 179 212 215 211 223 200 195
345 349 343 341 347 359 354 354 346 24 327 61 17 19 1 31 332 344 4 335 224 251 180 223 200 219 216 218 205 224 218 233 241 229 260 258 117 207 184 200 217 222 221 213 203
347 348 337 345 14 3 355 350 5 52 268 329 37 357 2 15 350 355 5 9 306 223 261 233 241 210 228 227 222 206 213 248 241 185 242 253 158 181 185 206 209 220 218 215 212
347 348 326 333 357 1 347 353 44 114 342 360 357 7 20 352 343 15 5 14 11 327 235 232 236 237 223 220 223 218 153 223 256 227 230 243 183 217 200 209 204 206 211 213 223
348 348 348 80 358 351 341 34 78 348 33 325 353 19 23 3 347 348 1 358 30 9 313 216 234 217 217 214 206 214 207 163 209 196 229 163 211 249 194 206 216 206 202 204 209
349 11 73 22 329 313 335 10 221 343 322 350 1 26 16 356 330 352 357 162 41 33 10 331 234 248 222 218 195 203 213 184 143 244 150 225 230 284 203 191 206 209 210 217 214
350 359 49 350 320 296 96 232 268 312 347 42 50 46 340 349 11 349 339 317 352 23 359 304 292 236 231 213 223 210 166 188 177 223 236 276 219 214 225 208 206 198 197 210 210
352 341 337 338 331 303 178 258 326 358 41 59 51 347 304 318 358 316 294 337 358 342 345 317 259 299 268 215 215 195 207 198 158 157 216 224 255 191 223 227 186 195 195 201 201
350 341 340 339 42 21 33 326 320 5 14 40 57 21 325 305 283 324 297 275 322 4 331 319 285 283 240 237 269 214 192 197 203 213 208 179 254 213 218 223 231 211 197 198 197
338 298 342 23 47 351 321 312 315 358 344 51 335 98 206 238 258 184 265 296 304 22 12 348 344 314 305 21 276 208 218 208 159 140 205 211 245 233 251 241 236 219 179 193 194
335 345 335 20 31 40 332 289 327 331 292 9 272 307 311 295 216 245 265 307 352 317 350 5 261 254 278 296 329 257 226 203 192 197 192 214 257 294 287 295 282 187 175 183 189
343 327 2 308 335 325 296 266 300 325 351 352 332 300 297 270 270 239 295 267 357 326 84 355 269 263 268 277 272 260 257 208 195 186 195 212 205 245 263 270 234 168 164 167 178
303 302 275 278 272 295 292 292 308 326 346 311 282 317 310 231 224 276 260 266 157 176 338 232 267 305 290 257 220 239 249 260 209 180 179 167 225 227 264 288 108 146 153 167 178
290 288 262 250 267 264 255 294 296 309 290 267 315 306 287 276 271 278 253 256 204 165 197 202 256 346 269 320 186 78 342 335 203 184 183 183 226 185 107 358 11 109 121 155 179
Wind_Speed_850mb
44 45 46 46 46 47 48 49 46 43 39 39 33 32 34 33 38 45 62 52 42 30 17 36 37 28 43 35 25 7 2 6 7 18 12 16 15 36 23 46 9 21 46 93 87
46 47 48 49 50 50 50 52 50 46 41 40 38 32 30 33 41 58 45 41 39 39 47 43 51 46 30 31 20 17 8 15 16 14 15 32 22 31 22 27 31 50 72 95 77
46 48 49 51 52 53 53 52 51 47 45 43 41 34 27 30 36 26 4 24 53 55 49 44 33 48 30 25 34 22 16 21 24 14 8 6 17 26 43 14 48 76 96 103 77
50 51 52 53 53 55 54 52 51 50 51 47 40 34 27 17 10 7 8 10 37 63 54 56 47 31 15 19 41 13 37 38 45 22 10 16 17 34 34 22 58 77 109 111 87
53 54 55 56 56 55 51 50 51 53 51 52 44 35 25 15 49 17 17 7 34 69 67 63 60 39 17 28 43 30 37 39 52 32 31 24 17 7 12 47 65 80 92 89 82
57 57 57 59 59 55 49 50 48 54 53 51 43 38 20 14 14 13 46 18 22 67 71 62 44 64 17 33 31 23 52 57 46 27 3 7 12 10 47 76 73 80 83 75 74
59 58 58 59 59 57 48 46 55 72 54 35 34 35 30 60 14 12 29 39 32 42 74 75 40 51 30 7 75 59 37 30 26 41 20 15 7 19 45 57 72 68 72 72 64
64 64 65 65 63 60 49 49 59 49 37 38 27 25 28 22 21 42 35 44 42 34 52 64 69 44 30 28 22 19 16 23 18 34 23 32 14 31 74 76 70 74 71 71 68
71 70 69 67 62 56 45 54 60 29 29 50 13 12 28 12 22 19 44 52 49 35 44 48 51 38 22 7 11 9 19 11 10 41 20 7 22 33 61 75 78 75 78 78 74
74 76 72 67 59 45 44 53 54 31 30 37 10 18 15 10 26 35 17 50 55 43 36 38 32 12 15 10 23 11 9 13 21 28 20 24 29 45 71 67 70 74 78 84 93
75 82 81 68 57 36 41 52 63 21 53 48 59 61 85 65 68 38 12 48 51 46 17 39 22 37 48 32 10 11 14 19 15 19 45 36 40 52 68 56 63 65 74 79 86
79 82 87 77 54 22 29 39 39 43 40 59 28 33 43 44 32 41 17 37 32 34 21 9 41 37 15 20 22 30 20 27 30 29 15 45 44 47 45 55 77 74 75 81 76
79 81 84 81 45 24 27 37 42 49 8 35 16 31 43 30 14 48 26 18 10 15 31 39 13 36 31 31 33 32 31 29 18 15 12 45 24 35 21 30 50 54 81 96 101
79 84 86 71 21 39 34 42 43 58 7 14 16 22 55 28 7 51 32 34 14 30 23 32 43 37 40 42 41 35 37 36 27 16 14 16 17 33 38 40 30 61 71 74 87
77 81 73 44 37 34 44 42 47 10 6 10 18 23 50 32 30 43 51 27 37 22 19 44 43 47 44 55 39 38 21 31 33 11 3 27 9 16 41 41 37 56 79 74 80
76 74 55 25 25 33 46 55 12 10 10 10 18 35 44 50 43 46 51 52 39 36 40 32 39 41 50 35 38 27 22 21 22 8 18 41 14 13 38 61 56 68 82 90 79
77 71 42 18 20 36 44 49 10 7 20 18 16 28 16 35 26 33 32 28 13 19 35 39 47 46 28 38 25 32 14 17 9 15 18 23 10 16 62 65 66 66 89 98 85
83 67 19 7 17 30 40 11 6 18 5 11 19 18 19 39 16 33 28 24 29 33 15 32 38 50 35 30 36 24 31 12 19 10 22 11 15 13 51 87 99 98 106 113 87
87 33 20 27 28 23 16 6 8 12 13 14 15 9 12 27 20 18 19 2 23 40 26 18 40 16 52 43 36 28 33 20 10 2 6 9 11 9 17 28 56 74 71 72 78
80 28 17 39 21 18 6 11 6 17 13 10 10 11 13 20 15 27 11 10 28 34 38 9 19 29 54 33 44 46 17 20 8 22 9 11 11 18 17 21 36 44 76 98 100
63 24 19 37 19 12 4 7 10 31 18 8 7 6 6 10 7 15 12 26 27 36 39 22 9 21 5 30 53 11 35 13 13 12 17 7 18 14 21 23 23 35 84 94 91
39 8 33 54 11 10 6 14 24 23 14 8 5 5 6 9 8 6 14 8 22 22 29 19 10 13 26 25 5 50 14 24 19 19 7 9 26 11 21 24 30 35 83 93 102
35 17 37 27 8 9 14 14 12 20 17 6 3 5 8 7 7 5 8 17 19 11 10 17 6 16 16 9 5 11 27 17 12 13 20 22 20 8 16 17 43 58 69 98 113
18 7 19 16 20 3 10 12 18 28 9 13 8 8 5 6 10 5 12 10 18 20 14 23 9 19 15 12 19 8 22 17 33 18 20 22 23 16 27 29 21 43 64 102 107
7 4 1 8 12 20 17 12 22 15 8 16 9 6 6 9 6 8 14 19 14 8 6 4 15 13 35 51 49 47 24 26 24 24 27 22 16 18 19 22 14 39 64 77 95
8 7 6 18 17 16 10 7 20 15 12 19 10 27 23 13 15 23 25 14 6 6 1 9 10 23 34 33 33 34 15 13 30 21 13 15 16 18 12 25 12 32 58 69 91
15 25 16 11 5 5 5 7 19 34 21 26 27 28 24 23 33 43 49 40 16 12 8 9 7 12 12 17 12 7 15 3 16 20 22 14 18 5 5 16 23 32 51 54 68
Wind_Direction_850mb
7 4 1 358 355 351 348 343 341 339 332 325 318 310 303 285 271 263 254 243 230 217 185 174 172 171 184 202 196 220 67 233 218 188 121 20 194 164 147 139 173 178 160 156 151
6 3 360 357 354 350 346 342 340 338 335 327 317 310 300 293 286 268 279 253 227 212 210 178 179 176 186 208 208 201 198 229 203 207 171 171 183 141 135 138 106 107 140 154 153
5 2 359 356 354 349 346 342 338 336 333 330 323 312 298 294 300 291 226 227 206 208 208 188 172 181 203 219 213 208 233 235 252 229 225 181 142 172 138 153 161 145 152 159 156
2 359 356 355 352 348 344 340 337 332 329 324 322 314 299 280 253 149 95 84 192 193 194 189 185 189 176 211 227 259 239 241 262 251 203 160 132 141 178 169 169 163 159 160 167
1 358 355 354 352 349 347 342 341 332 325 319 315 313 294 250 251 212 186 115 177 185 193 191 195 196 197 204 239 236 249 253 247 237 254 125 61 346 177 151 154 151 155 161 166
360 356 354 352 350 349 350 349 347 341 328 320 304 299 266 247 310 191 224 234 201 192 195 192 201 197 219 233 205 232 238 252 260 216 144 121 65 65 138 146 149 154 164 166 170
359 355 352 351 350 346 348 351 345 337 327 310 297 288 255 249 233 169 204 223 235 217 200 202 188 191 220 257 236 248 264 264 253 153 174 143 68 104 143 144 153 162 167 172 178
357 355 351 352 349 344 350 347 346 344 4 352 303 275 258 282 260 226 208 222 225 229 223 211 199 216 245 268 312 227 241 253 245 180 162 165 177 147 164 157 169 168 175 180 186
356 353 349 349 347 341 348 345 346 342 335 348 324 283 265 270 273 306 232 222 206 210 213 205 200 223 246 220 308 243 241 223 221 183 153 186 125 166 177 174 167 173 178 184 190
357 350 346 344 347 342 343 346 359 7 328 335 316 301 281 354 320 305 281 203 194 191 195 198 202 168 221 161 215 220 195 227 230 194 159 186 150 173 189 184 179 179 185 186 188
355 352 344 343 346 342 347 359 13 346 312 284 270 269 282 293 291 285 329 197 203 181 177 196 193 206 213 210 233 250 216 251 264 203 195 191 170 183 179 189 178 185 191 194 196
350 347 343 341 344 352 359 29 7 328 303 319 324 282 284 310 299 265 303 206 188 209 179 158 218 217 192 210 210 236 242 253 268 269 171 189 183 182 176 190 180 182 190 195 196
347 345 340 338 343 345 359 359 355 353 290 298 353 16 0 322 244 295 292 277 212 214 203 209 233 210 201 224 220 222 227 243 233 286 304 160 166 159 197 208 203 206 199 189 193
346 346 340 333 0 357 357 347 353 340 32 279 1 14 358 344 263 359 315 243 256 222 219 226 236 198 212 220 209 221 225 240 248 247 253 186 168 196 179 212 215 211 223 200 195
345 349 343 341 347 359 354 354 346 24 327 61 17 19 1 31 332 344 4 335 224 251 180 223 200 219 216 218 205 224 218 233 241 229 260 258 117 207 184 200 217 222 221 213 203
347 348 337 345 14 3 355 350 5 52 268 329 37 357 2 15 350 355 5 9 306 223 261 233 241 210 228 227 222 206 213 248 241 185 242 253 158 181 185 206 209 220 218 215 212
347 348 326 333 357 1 347 353 44 114 342 360 357 7 20 352 343 15 5 14 11 327 235 232 236 237 223 220 223 218 153 223 256 227 230 243 183 217 200 209 204 206 211 213 223
348 348 348 80 358 351 341 34 78 348 33 325 353 19 23 3 347 348 1 358 30 9 313 216 234 217 217 214 206 214 207 163 209 196 229 163 211 249 194 206 216 206 202 204 209
349 11 73 22 329 313 335 10 221 343 322 350 1 26 16 356 330 352 357 162 41 33 10 331 234 248 222 218 195 203 213 184 143 244 150 225 230 284 203 191 206 209 210 217 214
350 359 49 350 320 296 96 232 268 312 347 42 50 46 340 349 11 349 339 317 352 23 359 304 292 236 231 213 223 210 166 188 177 223 236 276 219 214 225 208 206 198 197 210 210
352 341 337 338 331 303 178 258 326 358 41 59 51 347 304 318 358 316 294 337 358 342 345 317 259 299 268 215 215 195 207 198 158 157 216 224 255 191 223 227 186 195 195 201 201
350 341 340 339 42 21 33 326 320 5 14 40 57 21 325 305 283 324 297 275 322 4 331 319 285 283 240 237 269 214 192 197 203 213 208 179 254 213 218 223 231 211 197 198 197
338 298 342 23 47 351 321 312 315 358 344 51 335 98 206 238 258 184 265 296 304 22 12 348 344 314 305 21 276 208 218 208 159 140 205 211 245 233 251 241 236 219 179 193 194
335 345 335 20 31 40 332 289 327 331 292 9 272 307 311 295 216 245 265 307 352 317 350 5 261 254 278 296 329 257 226 203 192 197 192 214 257 294 287 295 282 187 175 183 189
343 327 2 308 335 325 296 266 300 325 351 352 332 300 297 270 270 239 295 267 357 326 84 355 269 263 268 277 272 260 257 208 195 186 195 212 205 245 263 270 234 168 164 167 178
303 302 275 278 272 295 292 292 308 326 346 311 282 317 310 231 224 276 260 266 157 176 338 232 267 305 290 257 220 239 249 260 209 180 179 167 225 227 264 288 108 146 153 167 178
290 288 262 250 267 264 255 294 296 309 290 267 315 306 287 276 271 278 253 256 204 165 197 202 256 346 269 320 186 78 342 335 203 184 183 183 226 185 107 358 11 109 121 155 179